EUTELSAT 65 WEST A

Last updated on Wed Jul 02 2025 00:02:46 GMT+0000 (Coordinated Universal Time)

1 41382U 16014A 25182.48292524 -.00000273 00000+0 00000+0 0 9995 2 41382 0.0568 329.5409 0002414 131.0160 287.8565 1.00270392 34017
UTC large
Height (km)
Speed (km/s)
/
Latitude / Longitude
Inclination (degrees)
Orbital Period (minutes)
Azimuth
Elevation
Range (km)
Doppler Factor

Next 0 passes for location: London (51.5072 / 0.1276)

Sorry there are no passes over London.